Time,TemperatureF,DewpointF,PressureIn,WindDirection,WindDirectionDegrees,WindSpeedMPH,WindSpeedGustMPH,Humidity,HourlyPrecipIn,Conditions,Clouds,dailyrainin,SoftwareType,DateUTC
2013-02-28 00:14:00,55.5,53.0,29.97,WNW,289,0.0,0.0,90,0.00,,,0.00,weatherlink.com 1.10,2013-02-28 05:14:00,
2013-02-28 00:29:00,55.0,53.0,29.96,WNW,288,0.0,1.0,91,0.00,,,0.00,weatherlink.com 1.10,2013-02-28 05:29:00,
2013-02-28 00:44:00,54.4,52.0,29.97,WNW,288,0.0,0.0,92,0.00,,,0.00,weatherlink.com 1.10,2013-02-28 05:44:00,
2013-02-28 00:59:00,53.6,52.0,29.96,WNW,288,0.0,0.0,93,0.00,,,0.00,weatherlink.com 1.10,2013-02-28 05:59:00,
2013-02-28 01:14:00,53.2,52.0,29.97,WNW,288,0.0,0.0,94,0.00,,,0.00,weatherlink.com 1.10,2013-02-28 06:14:00,
2013-02-28 01:29:00,52.3,51.0,29.97,WNW,288,0.0,0.0,94,0.00,,,0.00,weatherlink.com 1.10,2013-02-28 06:29:00,
2013-02-28 01:44:00,51.6,50.0,29.96,WNW,288,0.0,0.0,95,0.00,,,0.00,weatherlink.com 1.10,2013-02-28 06:44:00,
2013-02-28 01:59:00,51.2,50.0,29.96,WNW,289,0.0,0.0,96,0.00,,,0.00,weatherlink.com 1.10,2013-02-28 06:59:00,
2013-02-28 02:14:00,51.4,50.0,29.96,WNW,289,0.0,0.0,96,0.00,,,0.00,weatherlink.com 1.10,2013-02-28 07:14:00,
2013-02-28 02:29:00,51.1,50.0,29.96,WNW,289,0.0,1.0,97,0.00,,,0.00,weatherlink.com 1.10,2013-02-28 07:29:00,
2013-02-28 02:44:00,50.3,49.0,29.96,WNW,288,0.0,0.0,96,0.00,,,0.00,weatherlink.com 1.10,2013-02-28 07:44:00,
2013-02-28 02:59:00,50.3,50.0,29.95,WNW,288,0.0,1.0,97,0.00,,,0.00,weatherlink.com 1.10,2013-02-28 07:59:00,
2013-02-28 03:14:00,50.8,50.0,29.94,WNW,289,0.0,1.0,98,0.00,,,0.00,weatherlink.com 1.10,2013-02-28 08:14:00,
2013-02-28 03:29:00,49.7,49.0,29.94,WNW,289,0.0,0.0,97,0.00,,,0.00,weatherlink.com 1.10,2013-02-28 08:29:00,
2013-02-28 03:44:00,48.9,48.0,29.94,WNW,288,0.0,0.0,98,0.00,,,0.00,weatherlink.com 1.10,2013-02-28 08:44:00,
2013-02-28 03:59:00,49.3,49.0,29.94,WNW,288,0.0,1.0,98,0.00,,,0.00,weatherlink.com 1.10,2013-02-28 08:59:00,
2013-02-28 04:14:00,48.6,48.0,29.94,WNW,289,0.0,0.0,98,0.00,,,0.00,weatherlink.com 1.10,2013-02-28 09:14:00,
2013-02-28 04:29:00,48.6,48.0,29.94,WNW,289,0.0,1.0,98,0.00,,,0.00,weatherlink.com 1.10,2013-02-28 09:29:00,
2013-02-28 04:44:00,48.3,48.0,29.94,WNW,289,0.0,1.0,98,0.00,,,0.00,weatherlink.com 1.10,2013-02-28 09:44:00,
2013-02-28 05:00:00,49.1,49.0,29.95,WNW,289,1.0,1.0,99,0.00,,,0.00,weatherlink.com 1.10,2013-02-28 10:00:00,
2013-02-28 05:15:00,49.9,50.0,29.96,WNW,289,0.0,1.0,99,0.00,,,0.00,weatherlink.com 1.10,2013-02-28 10:15:00,
2013-02-28 05:30:00,49.5,49.0,29.96,WNW,288,0.0,0.0,98,0.00,,,0.00,weatherlink.com 1.10,2013-02-28 10:30:00,
2013-02-28 05:45:00,49.6,49.0,29.96,WNW,288,0.0,0.0,98,0.00,,,0.00,weatherlink.com 1.10,2013-02-28 10:45:00,
2013-02-28 06:00:00,49.4,49.0,29.95,WNW,288,0.0,1.0,98,0.00,,,0.00,weatherlink.com 1.10,2013-02-28 11:00:00,
2013-02-28 06:15:00,49.3,49.0,29.95,WNW,289,0.0,0.0,99,0.00,,,0.00,weatherlink.com 1.10,2013-02-28 11:15:00,
2013-02-28 06:30:00,49.5,49.0,29.96,WNW,289,0.0,0.0,99,0.00,,,0.00,weatherlink.com 1.10,2013-02-28 11:30:00,
2013-02-28 06:45:00,50.0,50.0,29.97,WNW,289,0.0,0.0,99,0.00,,,0.00,weatherlink.com 1.10,2013-02-28 11:45:00,
2013-02-28 07:00:00,50.5,50.0,29.97,WNW,289,0.0,0.0,99,0.00,,,0.00,weatherlink.com 1.10,2013-02-28 12:00:00,
2013-02-28 07:15:00,50.4,50.0,29.98,WNW,288,0.0,0.0,99,0.00,,,0.00,weatherlink.com 1.10,2013-02-28 12:15:00,
2013-02-28 07:30:00,50.6,50.0,29.98,WNW,289,0.0,0.0,99,0.00,,,0.00,weatherlink.com 1.10,2013-02-28 12:30:00,
2013-02-28 07:45:00,52.0,52.0,29.98,WNW,288,0.0,0.0,99,0.00,,,0.00,weatherlink.com 1.10,2013-02-28 12:45:00,
2013-02-28 08:00:00,53.2,53.0,29.99,WNW,289,0.0,0.0,99,0.00,,,0.00,weatherlink.com 1.10,2013-02-28 13:00:00,
2013-02-28 08:15:00,55.2,55.0,29.99,WNW,290,0.0,0.0,99,0.00,,,0.00,weatherlink.com 1.10,2013-02-28 13:15:00,
2013-02-28 08:30:00,56.8,56.0,29.99,WNW,289,0.0,1.0,98,0.00,,,0.00,weatherlink.com 1.10,2013-02-28 13:30:00,
2013-02-28 08:45:00,57.7,57.0,30.00,WNW,290,0.0,1.0,96,0.00,,,0.00,weatherlink.com 1.10,2013-02-28 13:45:00,
2013-02-28 09:00:00,60.4,58.0,30.00,NNW,336,0.0,3.0,90,0.00,,,0.00,weatherlink.com 1.10,2013-02-28 14:00:00,
2013-02-28 09:15:00,62.5,57.0,30.00,West,279,2.0,3.0,83,0.00,,,0.00,weatherlink.com 1.10,2013-02-28 14:15:00,
2013-02-28 09:30:00,64.1,57.0,30.00,NNW,343,3.0,5.0,77,0.00,,,0.00,weatherlink.com 1.10,2013-02-28 14:30:00,
2013-02-28 09:45:00,65.2,57.0,30.00,WNW,301,2.0,5.0,74,0.00,,,0.00,weatherlink.com 1.10,2013-02-28 14:45:00,
2013-02-28 10:00:00,66.6,57.0,30.00,NNW,333,3.0,7.0,71,0.00,,,0.00,weatherlink.com 1.10,2013-02-28 15:00:00,
2013-02-28 10:15:00,67.9,58.0,30.00,WNW,282,2.0,7.0,70,0.00,,,0.00,weatherlink.com 1.10,2013-02-28 15:15:00,
2013-02-28 10:30:00,68.1,56.0,29.99,West,281,4.0,10.0,65,0.00,,,0.00,weatherlink.com 1.10,2013-02-28 15:30:00,
2013-02-28 10:45:00,68.3,56.0,29.99,West,281,4.0,5.0,64,0.00,,,0.00,weatherlink.com 1.10,2013-02-28 15:45:00,
2013-02-28 11:00:00,69.5,55.0,29.99,WNW,287,6.0,7.0,61,0.00,,,0.00,weatherlink.com 1.10,2013-02-28 16:00:00,
2013-02-28 11:15:00,70.2,55.0,29.98,NW,315,1.0,6.0,59,0.00,,,0.00,weatherlink.com 1.10,2013-02-28 16:15:00,
2013-02-28 11:30:00,70.7,55.0,29.98,West,281,3.0,7.0,57,0.00,,,0.00,weatherlink.com 1.10,2013-02-28 16:30:00,
2013-02-28 11:45:00,71.2,56.0,29.98,WSW,246,3.0,8.0,58,0.00,,,0.00,weatherlink.com 1.10,2013-02-28 16:45:00,
2013-02-28 12:00:00,71.9,56.0,29.97,North,1,2.0,10.0,57,0.00,,,0.00,weatherlink.com 1.10,2013-02-28 17:00:00,
2013-02-28 12:15:00,71.8,54.0,29.97,WNW,301,2.0,8.0,53,0.00,,,0.00,weatherlink.com 1.10,2013-02-28 17:15:00,
2013-02-28 12:30:00,71.4,54.0,29.96,WNW,282,2.0,7.0,54,0.00,,,0.00,weatherlink.com 1.10,2013-02-28 17:30:00,
2013-02-28 12:45:00,72.3,54.0,29.95,WNW,284,2.0,9.0,53,0.00,,,0.00,weatherlink.com 1.10,2013-02-28 17:45:00,
2013-02-28 13:00:00,72.3,54.0,29.94,WNW,297,2.0,9.0,52,0.00,,,0.00,weatherlink.com 1.10,2013-02-28 18:00:00,
2013-02-28 13:15:00,72.1,54.0,29.94,WNW,292,3.0,7.0,54,0.00,,,0.00,weatherlink.com 1.10,2013-02-28 18:15:00,
2013-02-28 13:30:00,72.9,53.0,29.93,West,265,8.0,9.0,49,0.00,,,0.00,weatherlink.com 1.10,2013-02-28 18:30:00,
2013-02-28 13:45:00,73.3,53.0,29.93,West,263,7.0,15.0,49,0.00,,,0.00,weatherlink.com 1.10,2013-02-28 18:45:00,
2013-02-28 14:00:00,73.2,53.0,29.92,WSW,251,9.0,12.0,50,0.00,,,0.00,weatherlink.com 1.10,2013-02-28 19:00:00,
2013-02-28 14:16:00,72.8,53.0,29.92,WNW,290,7.0,9.0,50,0.00,,,0.00,weatherlink.com 1.10,2013-02-28 19:16:00,
2013-02-28 14:31:00,73.3,54.0,29.92,West,281,7.0,8.0,52,0.00,,,0.00,weatherlink.com 1.10,2013-02-28 19:31:00,
2013-02-28 14:46:00,73.1,54.0,29.92,WNW,283,4.0,7.0,51,0.00,,,0.00,weatherlink.com 1.10,2013-02-28 19:46:00,
2013-02-28 15:01:00,72.9,50.0,29.91,NW,305,3.0,11.0,44,0.00,,,0.00,weatherlink.com 1.10,2013-02-28 20:01:00,
2013-02-28 15:16:00,73.0,49.0,29.91,West,279,5.0,13.0,43,0.00,,,0.00,weatherlink.com 1.10,2013-02-28 20:16:00,
2013-02-28 15:31:00,72.6,49.0,29.91,NW,307,4.0,12.0,43,0.00,,,0.00,weatherlink.com 1.10,2013-02-28 20:31:00,
2013-02-28 15:46:00,72.5,50.0,29.91,NW,306,3.0,14.0,45,0.00,,,0.00,weatherlink.com 1.10,2013-02-28 20:46:00,
2013-02-28 16:01:00,72.8,50.0,29.91,WNW,285,5.0,12.0,44,0.00,,,0.00,weatherlink.com 1.10,2013-02-28 21:01:00,
2013-02-28 16:16:00,72.0,49.0,29.91,WNW,283,8.0,14.0,45,0.00,,,0.00,weatherlink.com 1.10,2013-02-28 21:16:00,
2013-02-28 16:31:00,71.9,50.0,29.90,West,261,11.0,11.0,46,0.00,,,0.00,weatherlink.com 1.10,2013-02-28 21:31:00,
2013-02-28 16:46:00,71.4,49.0,29.91,WNW,302,2.0,14.0,46,0.00,,,0.00,weatherlink.com 1.10,2013-02-28 21:46:00,
2013-02-28 17:01:00,70.5,50.0,29.90,WNW,282,7.0,12.0,48,0.00,,,0.00,weatherlink.com 1.10,2013-02-28 22:01:00,
2013-02-28 17:16:00,70.1,49.0,29.90,WNW,284,12.0,12.0,48,0.00,,,0.00,weatherlink.com 1.10,2013-02-28 22:16:00,
2013-02-28 17:31:00,69.0,49.0,29.91,NW,315,1.0,10.0,50,0.00,,,0.00,weatherlink.com 1.10,2013-02-28 22:31:00,
2013-02-28 17:46:00,67.9,49.0,29.92,WNW,303,3.0,7.0,52,0.00,,,0.00,weatherlink.com 1.10,2013-02-28 22:46:00,
2013-02-28 18:01:00,67.0,50.0,29.92,WNW,283,5.0,6.0,55,0.00,,,0.00,weatherlink.com 1.10,2013-02-28 23:01:00,
2013-02-28 18:16:00,66.2,50.0,29.92,WNW,282,5.0,10.0,57,0.00,,,0.00,weatherlink.com 1.10,2013-02-28 23:16:00,
2013-02-28 18:31:00,65.6,50.0,29.93,WNW,294,4.0,6.0,58,0.00,,,0.00,weatherlink.com 1.10,2013-02-28 23:31:00,
2013-02-28 18:46:00,64.9,51.0,29.93,West,278,7.0,7.0,61,0.00,,,0.00,weatherlink.com 1.10,2013-02-28 23:46:00,
2013-02-28 19:01:00,64.3,51.0,29.93,WNW,298,2.0,5.0,63,0.00,,,0.00,weatherlink.com 1.10,2013-03-01 00:01:00,
2013-02-28 19:16:00,63.9,51.0,29.94,WNW,285,5.0,7.0,64,0.00,,,0.00,weatherlink.com 1.10,2013-03-01 00:16:00,
2013-02-28 19:31:00,63.3,52.0,29.95,WNW,290,1.0,4.0,67,0.00,,,0.00,weatherlink.com 1.10,2013-03-01 00:31:00,
2013-02-28 19:46:00,62.2,53.0,29.95,West,277,2.0,5.0,71,0.00,,,0.00,weatherlink.com 1.10,2013-03-01 00:46:00,
2013-02-28 20:01:00,61.7,53.0,29.95,NW,317,2.0,4.0,73,0.00,,,0.00,weatherlink.com 1.10,2013-03-01 01:01:00,
2013-02-28 20:16:00,61.1,54.0,29.95,NW,307,1.0,2.0,77,0.00,,,0.00,weatherlink.com 1.10,2013-03-01 01:16:00,
2013-02-28 20:31:00,60.2,54.0,29.95,WNW,286,0.0,2.0,79,0.00,,,0.00,weatherlink.com 1.10,2013-03-01 01:31:00,
2013-02-28 20:46:00,59.4,53.0,29.95,WNW,285,1.0,3.0,80,0.00,,,0.00,weatherlink.com 1.10,2013-03-01 01:46:00,
2013-02-28 21:01:00,58.7,53.0,29.95,WNW,286,0.0,1.0,81,0.00,,,0.00,weatherlink.com 1.10,2013-03-01 02:01:00,
2013-02-28 21:16:00,57.8,52.0,29.95,WNW,285,0.0,2.0,82,0.00,,,0.00,weatherlink.com 1.10,2013-03-01 02:16:00,
2013-02-28 21:31:00,56.3,51.0,29.95,WNW,285,0.0,0.0,83,0.00,,,0.00,weatherlink.com 1.10,2013-03-01 02:31:00,
2013-02-28 21:46:00,55.3,51.0,29.96,WNW,285,1.0,1.0,86,0.00,,,0.00,weatherlink.com 1.10,2013-03-01 02:46:00,
2013-02-28 22:01:00,55.4,51.0,29.96,WNW,286,0.0,2.0,85,0.00,,,0.00,weatherlink.com 1.10,2013-03-01 03:01:00,
2013-02-28 22:16:00,53.8,50.0,29.97,WNW,285,0.0,1.0,88,0.00,,,0.00,weatherlink.com 1.10,2013-03-01 03:16:00,
2013-02-28 22:31:00,52.4,50.0,29.96,WNW,285,0.0,1.0,91,0.00,,,0.00,weatherlink.com 1.10,2013-03-01 03:31:00,
2013-02-28 22:46:00,52.0,50.0,29.97,WNW,285,0.0,1.0,92,0.00,,,0.00,weatherlink.com 1.10,2013-03-01 03:46:00,
2013-02-28 23:01:00,51.6,50.0,29.97,WNW,285,0.0,0.0,93,0.00,,,0.00,weatherlink.com 1.10,2013-03-01 04:01:00,
2013-02-28 23:31:00,50.6,49.0,29.96,WNW,285,0.0,0.0,94,0.00,,,0.00,weatherlink.com 1.10,2013-03-01 04:31:00,
2013-02-28 23:46:00,52.9,50.0,29.95,WNW,285,0.0,1.0,90,0.00,,,0.00,weatherlink.com 1.10,2013-03-01 04:46:00,